Terminal Aerodrome Forecast
Issued by NWS Omaha/Valley, NE

Home | Current Version | Previous Version | Graphics & Text | Print | Product List | Glossary On
Versions: 1 2 3 4 5 6 7 8 9 10 11 12 13 14 15 16 17 18 19 20 21 22 23 24 25 26 27 28 29 30 31 32 33 34 35 36
000
FTUS43 KOAX 080848 AAA
TAFOFK
TAF AMD
KOFK 080848Z 0809/0906 31014G23KT P6SM SCT020
     FM081600 32016G25KT P6SM FEW025
     FM082300 32012KT P6SM FEW200
     FM090200 31007KT P6SM FEW200=

USA.gov is the U.S. government's official web portal to all federal, state and local government web resources and services.